Weather History for Estherville, IA

Change the Weather History Date:

Tuesday, April 3, 2012

  Actual Average Record
Temperature  
Mean Temperature 53 °F 41 °F  
Max Temperature 63 °F 52 °F 80 °F (1981)
Min Temperature 43 °F 31 °F 10 °F (1975)
Degree Days  
Heating Degree Days 12 24  
Month to date heating degree days 16 73  
Since 1 July heating degree days 5629 6988  
Cooling Degree Days 0 0  
Month to date cooling degree days 3 0  
Year to date cooling degree days 13 0  
Growing Degree Days 4 (Base 50)    
Moisture  
Dew Point 40 °F    
Average Humidity 54    
Maximum Humidity 78    
Minimum Humidity 30    
Precipitation  
Precipitation 0.00 in 0.08 in 1.21 in (1988)
Month to date precipitation 0.00 0.24  
Year to date precipitation 3.04  
Sea Level Pressure  
Sea Level Pressure 29.97 in    
Wind  
Wind Speed 19 mph (NNE)    
Max Wind Speed 29 mph    
Max Gust Speed 36 mph    
Visibility 10 miles    
Events      
T = Trace of Precipitation, MM = Missing Value Source: NWS Daily Summary

Daily Weather History Graph

Daily Weather History Graph

Search for Another Location

Airport:

Trip Planner

Search our weather history database for the weather conditions in past years. The results will help you decide how hot, cold, wet, or windy it might be!

Date:

Astronomy

Apr. 03, 2012 Rise Set
Actual Time 6:56 AM CDT 7:48 PM CDT
Civil Twilight 6:27 AM CDT 8:17 PM CDT
Nautical Twilight 5:52 AM CDT 8:52 PM CDT
Astronomical Twilight 5:17 AM CDT 9:28 PM CDT
Moon 4:28 PM CDT (4/3) 4:50 AM CDT (4/3)
Length of Visible Light 13h 50m
Length of Day
12h 52m
Waxing Gibbous, 87% of the Moon is Illuminated
Apr 3
Waxing Gibbous
Apr 6
Full
Apr 13
Last Quarter
Apr 21
New
Apr 29
First Quarter

Hourly Weather History & Observations

Time (CDT) Temp. Windchill Dew Point Humidity Pressure Visibility Wind Dir Wind Speed Gust Speed Precip Events Conditions
12:52 AM 60.1 °F - 54.0 °F 80% 29.72 in 6.0 mi NW 19.6 mph 25.3 mph N/A   Haze
2:52 AM 57.9 °F - 46.9 °F 67% 29.78 in 10.0 mi NNW 17.3 mph - N/A   Mostly Cloudy
3:29 AM 55.4 °F - 44.6 °F 67% 29.81 in 10.0 mi NNW 23.0 mph 28.8 mph N/A   Scattered Clouds
4:30 AM 53.6 °F - 42.8 °F 67% 29.85 in 10.0 mi North 26.5 mph 33.4 mph N/A   Mostly Cloudy
4:52 AM 52.0 °F - 41.0 °F 66% 29.86 in 10.0 mi North 20.7 mph 28.8 mph N/A   Overcast
5:13 AM 51.8 °F - 41.0 °F 67% 29.88 in 10.0 mi North 23.0 mph 31.1 mph N/A   Mostly Cloudy
5:21 AM 51.8 °F - 41.0 °F 67% 29.88 in 10.0 mi North 21.9 mph 31.1 mph N/A   Mostly Cloudy
5:52 AM 52.0 °F - 41.0 °F 66% 29.89 in 10.0 mi North 24.2 mph 29.9 mph N/A   Overcast
6:32 AM 51.8 °F - 39.2 °F 62% 29.93 in 10.0 mi North 21.9 mph 32.2 mph N/A   Overcast
7:52 AM 51.1 °F - 39.9 °F 66% 29.97 in 10.0 mi North 21.9 mph 29.9 mph N/A   Overcast
8:07 AM 51.8 °F - 42.8 °F 71% 29.99 in 10.0 mi North 21.9 mph 29.9 mph N/A   Overcast
8:52 AM 50.0 °F - 42.1 °F 74% 30.01 in 10.0 mi North 21.9 mph 33.4 mph N/A   Overcast
9:52 AM 50.0 °F - 42.1 °F 74% 30.03 in 10.0 mi NNE 23.0 mph 31.1 mph N/A   Overcast
10:42 AM 51.8 °F - 41.0 °F 67% 30.03 in 10.0 mi NNE 24.2 mph 32.2 mph N/A   Overcast
10:52 AM 51.1 °F - 41.0 °F 68% 30.04 in 10.0 mi North 23.0 mph 34.5 mph N/A   Overcast
11:36 AM 51.8 °F - 42.8 °F 71% 30.04 in 10.0 mi NNE 26.5 mph 32.2 mph N/A   Overcast
11:52 AM 51.1 °F - 42.1 °F 71% 30.06 in 10.0 mi NNE 26.5 mph 33.4 mph N/A   Overcast
12:52 PM 53.1 °F - 42.1 °F 66% 30.04 in 10.0 mi NNE 20.7 mph 29.9 mph N/A   Overcast
1:52 PM 57.9 °F - 42.1 °F 56% 30.01 in 10.0 mi NNE 21.9 mph 33.4 mph N/A   Mostly Cloudy
2:52 PM 60.1 °F - 41.0 °F 49% 29.99 in 10.0 mi NNE 25.3 mph 33.4 mph N/A   Clear
3:52 PM 61.0 °F - 37.9 °F 42% 30.00 in 10.0 mi NNE 29.9 mph 35.7 mph N/A   Clear
4:52 PM 62.1 °F - 33.1 °F 34% 29.99 in 10.0 mi NNE 24.2 mph 32.2 mph N/A   Clear
5:52 PM 62.1 °F - 30.9 °F 31% 30.00 in 10.0 mi NE 19.6 mph - N/A   Mostly Cloudy
6:52 PM 61.0 °F - 34.0 °F 36% 30.01 in 10.0 mi NE 16.1 mph - N/A   Mostly Cloudy
7:52 PM 55.0 °F - 34.0 °F 45% 30.03 in 10.0 mi NNE 10.4 mph - N/A   Scattered Clouds
8:52 PM 50.0 °F - 32.0 °F 50% 30.05 in 10.0 mi NNE 8.1 mph - N/A   Clear
9:52 PM 46.9 °F - 32.0 °F 56% 30.04 in 10.0 mi NNE 10.4 mph - N/A   Clear
10:52 PM 46.9 °F - 30.9 °F 54% 30.03 in 10.0 mi North 9.2 mph - N/A   Clear
11:52 PM 44.1 °F 40.8 °F 30.9 °F 60% 30.04 in 10.0 mi NNE 5.8 mph - N/A   Clear